SCP
0 0 0 0 0 0 0 0 0 0 0 0 0 0 0 0 0 0 0 0 0 0 0 0 0 0 0 0 0 0 0 0 0 0 0 0 0 0 0 0 0 0 0 0
0 0 0 0 0 0 0 0 0 0 0 0 0 0 0 0 0 0 0 0 0 0 0 0 0 0 0 0 0 0 0 0 0 0 0 0 0 0 0 0 0 0 0 0
0 0 0 0 0 0 0 0 0 0 0 0 0 0 0 0 0 0 0 0 0 0 0 0 0 0 0 0 0 0 0 0 0 0 0 0 0 0 0 0 0 0 0 0
0 0 0 0 0 0 0 0 0 0 0 0 0 0 0 0 0 0 0 0 0 0 0 0 0 0 0 0 0 0 0 0 0 0 0 0 0 0 0 0 0 0 0 0
0 0 0 0 0 0 0 0 0 0 0 0 0 0 0 0 0 0 0 0 0 0 0 0 0 0 0 0 0 0 0 0 0 0 0 0 0 0 0 0 0 0 0 0
0 0 0 0 0 0 0 0 0 0 0 0 0 0 0 0 0 0 0 0 0 0 0 0 0 0 0 0 0 0 0 0 0 0 0 0 0 0 0 0 0 0 0 0
0 0 0 0 0 0 0 0 0 0 0 0 0 0 0 0 0 0 0 0 0 0 0 0 0 0 0 0 0 0 0 0 0 0 0 0 0 0 0 0 0 0 0 0
0 0 0 0 0 0 0 0 0 0 0 0 0 0 0 0 0 0 0 0 0 0 0 0 0 0 0 0 0 0 0 0 0 0 0 0 0 0 0 0 0 0 0 0
0 0 0 0 0 0 0 0 0 0 0 0 0 0 0 0 0 0 0 0 0 0 0 0 0 0 0 0 0 0 0 0 0 0 0 0 0 0 0 0 0 0 0 0
0 0 0 0 0 0 0 0 0 0 0 0 0 0 0 0 0 0 0 0 0 0 0 0 0 0 0 0 0 0 0 0 0 0 0 0 0 0 0 0 0 0 0 0
0 0 0 0 0 0 0 0 0 0 0 0 0 0 0 0 0 0 0 0 0 0 0 0 0 0 0 0 0 0 0 0 0 0 0 0 0 0 0 0 0 0 0 0
0 0 0 0 0 0 0 0 0 0 0 0 0 0 0 0 0 0 0 0 0 0 0 0 0 0 0 0 0 0 0 0 0 0 0 0 0 0 0 0 0 0 0 0
0 0 0 0 0 0 0 0 0 0 0 0 0 0 0 0 0 0 0 0 0 0 0 0 0 0 0 0 0 0 0 0 0 0 0 0 0 0 0 0 0 0 0 0
0 0 0 0 0 0 0 0 0 0 0 0 0 0 0 0 0 0 0 0 0 0 0 0 0 0 0 0 0 0 0 0 0 0 0 0 0 0 0 0 0 0 0 0
0 0 0 0 0 0 0 0 0 0 0 0 0 0 0 0 0 0 0 0 0 0 0 0 0 0 0 0 0 0 0 0 0 0 0 0 0 0 0 0 0 0 0 0
0 0 0 0 0 0 0 0 0 0 0 0 0 0 0 0 0 0 0 0 0 0 0 0 0 0 0 0 0 0 0 0 0 0 0 0 0 0 0 0 0 0 0 0
0 0 0 0 0 0 0 0 0 0 0 0 0 0 0 0 0 0 0 0 0 0 0 0 0 0 0 0 0 0 0 0 0 0 0 0 0 0 0 0 0 0 0 0
0 0 -0 0 0 0 0 0 0 0 0 0 0 0 0 0 0 0 0 0 0 0 0 0 0 0 0 0 0 0 0 0 0 0 0 0 0 0 0 0 0 0 0 0
0 0 0 0 0 0 0 0 0 0 0 0 0 0 0 0 0 0 0 0 0 0 0 0 0 0 0 0 0 0 0 0 0 0 0 0 0 0 0 0 0 0 0 0
0 0 0 0 0 0 0 0 0 0 0 0 0 0 0 0 0 0 0 0 0 0 0 0 0 0 0 0 0 0 0 0 0 0 0 0 0 0 0 0 0 0 0 0
0 0 0 0 0 0 0 0 0 0 0 0 0 0 0 0 0 0 0 0 0 0 0 0 0 0 0 0 0 0 0 0 0 0 0 0 0 0 0 0 0 0 0 0
0 0 0 0 0 0 0 0 0 0 0 0 0 0 0 0 0 0 0 0 0 0 0 0 0 0 0 0 0 0 0 0 0 0 0 0 0 0 0 0 0 0 0 0
0 0 0 0 0 0 0 0 0 0 0 0 0 0 0 0 0 0 0 0 0 0 0 0 0 0 0 0 0 0 0 0 0 0 0 0 0 0 0 0 0 0 0 0
0 0 0 0 0 0 0 0 0 0 0 0 0 0 0 0 0 0 0 0 0 0 0 0 0 0 0 0 0 0 0 0 0 0 0 0 0 0 0 0 0 0 0 0
0 0 0 0 0 0 0 0 0 0 0 0 0 0 0 0 0 0 0 0 0 0 0 -0 0 0 -0 0 0 0 0 0 0 0 0 0 0 0 0 0 0 0 0 0
0 0 0 0 0 0 0 0 0 0 0 0 0 0 0 0 0 0 0 0 0 0 0 0 0 0 0 0 0 0 0 0 0 0 0 0 0 0 0 0 0 0 0 0
0 0 0 0 0 0 0 0 0 0 0 0 0 0 0 0 0 0 0 0 0 0 0 0 -0 0 -0 0 0 0 0 0 0 0 0 0 0 0 0 0 0 0 0 0
Wind_Speed_500mb
8 6 3 3 11 10 20 20 7 21 6 6 5 7 12 20 15 9 5 5 11 18 23 27 20 28 8 22 36 25 9 10 11 25 4 5 4 14 22 13 13 4 1 8
11 7 5 5 5 11 14 9 9 15 8 5 3 3 8 10 20 15 12 9 6 6 17 14 18 16 4 17 25 30 17 10 9 5 4 2 14 12 22 5 5 15 13 11
12 10 10 9 3 5 8 5 5 6 11 7 3 1 6 13 5 12 7 8 7 10 13 8 18 10 2 12 11 12 25 8 26 28 28 16 19 22 18 24 11 15 20 17
15 16 10 9 12 4 5 5 1 2 5 13 9 5 2 7 5 5 10 3 10 14 11 17 16 10 9 2 7 8 9 16 16 21 4 14 16 29 34 34 48 26 41 27
27 18 17 15 16 17 8 6 4 6 2 3 18 9 6 7 5 1 5 10 16 9 11 17 20 22 15 10 5 12 2 6 9 9 1 10 11 26 40 49 45 38 24 27
26 31 19 19 18 29 10 14 9 7 3 3 7 13 5 5 14 2 8 17 10 7 6 9 21 19 20 11 10 10 12 13 8 14 12 3 14 40 38 36 42 47 36 33
20 24 33 22 21 26 26 15 14 6 3 5 7 2 4 15 9 4 3 12 16 14 23 31 22 21 15 9 6 9 11 10 3 9 13 16 9 7 14 37 17 32 23 18
30 27 31 33 27 25 31 27 14 11 4 5 5 10 6 8 12 4 1 4 7 48 24 7 10 4 5 3 4 13 6 8 6 10 19 9 10 12 16 24 31 30 28 19
27 34 35 32 35 31 31 34 34 16 10 12 12 10 12 6 4 4 6 3 33 21 5 4 11 11 9 11 9 1 5 5 7 7 14 23 2 7 11 10 22 25 37 32
30 28 39 35 35 39 32 29 42 30 11 10 27 9 14 16 9 4 4 13 12 2 3 4 5 6 1 17 21 12 9 7 16 12 6 11 8 10 17 16 8 15 42 47
31 29 30 36 39 39 39 33 41 35 15 15 25 23 13 15 14 7 10 10 4 3 8 9 6 8 12 7 10 15 17 16 9 6 10 18 21 14 13 5 8 23 37 51
25 28 31 34 38 42 36 45 34 39 27 11 36 38 37 26 22 27 27 1 9 16 6 3 6 5 4 7 13 1 11 10 13 17 12 3 40 2 22 19 27 28 39 50
17 21 28 31 33 40 41 34 34 40 22 17 32 30 33 44 34 20 11 14 6 6 6 10 4 6 7 10 11 5 8 5 6 7 11 9 38 16 23 21 30 36 46 61
25 24 25 29 34 38 39 43 44 43 6 4 10 25 47 46 35 49 42 23 14 6 7 4 4 5 11 6 2 8 5 20 9 6 1 5 29 32 36 35 36 46 53 57
22 29 33 32 31 35 37 42 50 47 38 4 6 19 31 33 39 58 45 47 26 16 8 5 6 6 7 2 1 7 16 11 14 14 27 16 24 56 44 44 50 53 58 53
29 28 34 39 36 33 36 24 45 53 55 7 5 5 13 24 38 44 51 47 44 27 15 8 12 9 12 9 9 9 38 34 28 8 22 41 24 57 56 50 52 54 52 49
39 37 34 41 42 42 53 10 15 50 58 17 7 5 20 23 18 26 29 45 35 33 15 12 11 13 19 6 11 8 33 41 35 31 25 25 24 36 57 52 55 54 51 47
39 40 43 38 43 42 51 64 23 47 57 17 6 5 8 30 15 13 23 19 28 26 18 11 11 11 6 9 35 33 15 39 43 37 43 28 40 41 60 62 61 58 56 53
36 41 49 45 48 52 54 46 60 48 34 11 10 13 9 30 17 12 16 19 8 16 10 12 21 12 13 19 47 40 57 47 32 33 41 36 39 47 53 64 62 65 65 59
41 44 37 35 45 48 29 33 51 56 29 17 6 15 8 24 19 13 14 12 8 9 11 17 9 13 47 65 77 62 61 60 59 58 47 55 53 58 63 64 66 70 69 64
37 41 33 27 40 44 27 21 19 11 10 24 18 21 10 21 8 7 15 5 6 10 10 12 11 11 30 81 70 74 66 57 59 65 68 75 79 74 66 66 66 67 69 65
31 30 58 52 24 14 11 8 2 8 9 9 13 18 16 14 14 6 10 5 3 12 15 10 6 11 62 69 83 98 90 76 70 69 70 77 83 81 75 66 64 65 66 67
13 12 16 14 10 11 13 11 3 6 9 19 23 9 20 10 10 6 6 9 6 3 9 9 16 36 61 69 75 78 81 85 87 85 87 89 88 85 79 74 68 67 73 72
6 9 11 9 7 7 9 15 10 14 23 46 45 14 7 10 6 5 9 6 2 4 6 5 6 13 18 19 27 46 63 69 84 94 97 99 98 93 86 82 74 72 78 75
4 9 10 9 5 5 11 29 25 25 49 55 19 13 9 4 6 6 6 6 9 9 11 9 17 24 27 29 28 31 42 55 76 91 99 100 96 88 82 73 70 69 72 71
4 10 6 2 5 3 6 14 14 24 48 27 13 8 6 6 7 9 14 12 12 7 7 12 6 10 28 26 26 31 31 39 49 51 69 71 66 70 72 68 65 66 65 60
8 5 9 5 14 10 8 11 15 36 35 6 7 10 16 6 6 6 8 9 7 18 24 32 35 39 34 31 33 32 36 34 32 37 45 51 58 64 64 64 63 59 54 49
Wind_Direction_500mb
231 249 281 286 11 20 152 152 144 138 205 103 154 144 188 205 177 226 153 129 115 168 165 175 181 200 231 174 153 181 175 113 153 199 53 344 309 211 188 195 198 230 235 242
235 247 257 240 30 22 118 110 123 135 157 117 180 163 205 195 173 189 166 167 190 153 166 161 194 181 116 166 168 171 179 173 124 135 241 179 214 190 212 161 90 192 178 236
225 227 232 223 220 24 101 106 145 98 153 147 53 111 164 169 228 161 116 139 106 131 177 202 172 159 155 180 187 163 168 149 210 206 211 144 205 193 209 205 198 202 229 220
221 217 214 220 228 216 102 70 88 120 162 185 160 277 74 160 137 57 134 120 226 173 140 163 179 151 133 167 158 141 182 205 203 236 283 195 214 191 189 203 222 209 237 218
228 218 214 214 220 214 176 129 165 117 97 109 169 205 190 217 30 85 172 134 116 125 139 199 174 157 178 164 141 156 158 189 153 195 36 209 214 207 200 209 218 228 235 228
227 223 219 215 214 205 166 171 149 131 137 220 183 183 184 164 115 156 355 153 138 125 155 121 131 84 88 115 141 148 152 144 151 215 167 168 269 217 203 215 222 221 223 221
241 230 220 216 215 228 224 185 167 142 141 204 227 155 160 157 131 230 172 299 156 173 167 132 102 90 105 144 155 137 141 129 104 126 157 209 269 42 229 218 223 218 240 161
242 239 225 219 218 220 220 218 185 166 150 189 163 180 156 151 112 103 65 116 145 148 131 109 119 121 124 165 171 187 155 140 107 179 206 308 197 191 168 186 237 212 215 167
256 229 230 222 216 220 219 223 210 182 133 218 190 184 180 146 153 145 232 237 164 160 138 144 164 175 137 171 148 30 197 201 178 168 193 221 28 169 165 131 260 193 182 165
244 240 228 224 220 214 219 216 223 205 183 220 189 183 182 165 158 159 160 162 176 162 127 143 153 168 77 162 173 165 161 164 197 178 216 279 222 166 158 167 251 169 192 169
233 233 228 227 220 212 216 226 228 214 190 201 205 204 168 147 172 152 163 131 187 122 202 191 182 180 192 165 161 174 169 165 167 139 186 249 149 126 196 172 144 165 175 181
236 238 238 234 232 211 209 221 216 207 211 225 218 224 228 225 223 209 181 254 169 179 154 170 111 148 181 145 197 142 206 187 174 189 201 138 181 226 215 177 162 170 168 173
245 241 237 237 233 231 213 213 214 210 207 216 222 215 220 226 220 218 198 231 210 197 159 148 134 196 150 174 219 138 230 201 194 140 187 199 194 206 183 179 164 158 162 160
251 250 243 236 231 230 223 218 217 218 175 230 239 226 230 227 227 232 240 246 245 225 179 112 147 210 200 203 92 207 162 149 170 277 97 122 197 200 185 182 171 157 159 163
252 253 239 241 233 229 229 229 221 218 198 184 226 241 229 225 228 229 231 232 235 209 158 155 217 127 147 45 356 223 186 170 193 226 176 183 202 200 196 187 177 173 168 165
262 256 244 233 230 224 223 229 234 217 216 238 213 239 220 218 224 223 222 218 214 222 208 209 206 204 189 187 203 239 209 211 215 228 214 209 221 209 201 193 187 185 185 185
259 258 253 231 226 219 213 215 210 209 205 210 187 240 195 192 203 207 206 211 212 216 223 223 214 194 188 168 240 222 225 229 219 223 205 197 194 193 202 200 194 191 188 186
261 251 241 236 226 226 227 229 231 185 184 194 199 156 165 182 166 185 187 176 194 204 212 223 201 152 166 228 241 233 241 228 218 217 205 222 213 202 201 202 198 196 197 199
254 246 234 231 226 222 226 233 224 217 202 177 169 157 182 174 173 161 171 178 184 194 203 194 177 186 206 218 234 200 214 220 225 219 221 218 218 218 208 206 206 210 207 208
268 245 219 206 215 212 209 203 186 194 198 185 200 166 152 167 165 158 169 180 212 206 207 171 211 218 221 232 239 234 226 224 225 222 217 221 224 217 214 214 220 222 220 220
251 204 193 173 180 180 199 209 181 162 176 162 164 177 134 181 146 161 197 201 209 221 195 210 194 214 219 231 236 240 236 227 223 226 236 238 235 224 219 219 220 225 228 226
309 164 148 140 166 183 224 168 148 178 160 162 145 159 150 152 162 140 165 226 231 237 164 203 219 219 221 228 234 240 238 234 232 235 238 238 239 236 233 236 238 235 228 222
203 135 126 134 187 181 190 138 219 166 151 155 150 127 157 130 177 107 136 214 248 2 203 224 239 231 239 237 239 243 245 242 236 232 233 235 237 237 237 240 242 236 224 223
184 119 152 181 183 211 189 142 163 160 152 156 151 121 136 143 147 149 168 195 111 251 235 256 278 275 270 279 263 248 248 243 240 235 234 235 236 235 234 235 234 231 225 223
195 145 170 168 170 334 165 127 125 144 165 148 128 87 101 129 129 158 121 164 213 215 247 252 240 268 302 320 315 291 262 246 242 238 237 237 237 235 233 229 227 224 221 218
98 58 128 180 167 30 79 95 104 134 152 131 95 105 108 191 153 161 187 170 201 215 221 242 285 281 320 330 332 323 304 280 262 255 247 242 239 234 229 221 215 212 210 209
59 53 55 19 49 81 94 106 121 146 155 147 125 147 198 98 140 220 184 208 218 227 237 253 268 278 286 303 303 294 293 287 273 259 245 234 225 218 212 207 201 199 200 202
Wind_Speed_850mb
8 6 3 3 11 10 20 20 7 21 6 6 5 7 12 20 15 9 5 5 11 18 23 27 20 28 8 22 36 25 9 10 11 25 4 5 4 14 22 13 13 4 1 8
11 7 5 5 5 11 14 9 9 15 8 5 3 3 8 10 20 15 12 9 6 6 17 14 18 16 4 17 25 30 17 10 9 5 4 2 14 12 22 5 5 15 13 11
12 10 10 9 3 5 8 5 5 6 11 7 3 1 6 13 5 12 7 8 7 10 13 8 18 10 2 12 11 12 25 8 26 28 28 16 19 22 18 24 11 15 20 17
15 16 10 9 12 4 5 5 1 2 5 13 9 5 2 7 5 5 10 3 10 14 11 17 16 10 9 2 7 8 9 16 16 21 4 14 16 29 34 34 48 26 41 27
27 18 17 15 16 17 8 6 4 6 2 3 18 9 6 7 5 1 5 10 16 9 11 17 20 22 15 10 5 12 2 6 9 9 1 10 11 26 40 49 45 38 24 27
26 31 19 19 18 29 10 14 9 7 3 3 7 13 5 5 14 2 8 17 10 7 6 9 21 19 20 11 10 10 12 13 8 14 12 3 14 40 38 36 42 47 36 33
20 24 33 22 21 26 26 15 14 6 3 5 7 2 4 15 9 4 3 12 16 14 23 31 22 21 15 9 6 9 11 10 3 9 13 16 9 7 14 37 17 32 23 18
30 27 31 33 27 25 31 27 14 11 4 5 5 10 6 8 12 4 1 4 7 48 24 7 10 4 5 3 4 13 6 8 6 10 19 9 10 12 16 24 31 30 28 19
27 34 35 32 35 31 31 34 34 16 10 12 12 10 12 6 4 4 6 3 33 21 5 4 11 11 9 11 9 1 5 5 7 7 14 23 2 7 11 10 22 25 37 32
30 28 39 35 35 39 32 29 42 30 11 10 27 9 14 16 9 4 4 13 12 2 3 4 5 6 1 17 21 12 9 7 16 12 6 11 8 10 17 16 8 15 42 47
31 29 30 36 39 39 39 33 41 35 15 15 25 23 13 15 14 7 10 10 4 3 8 9 6 8 12 7 10 15 17 16 9 6 10 18 21 14 13 5 8 23 37 51
25 28 31 34 38 42 36 45 34 39 27 11 36 38 37 26 22 27 27 1 9 16 6 3 6 5 4 7 13 1 11 10 13 17 12 3 40 2 22 19 27 28 39 50
17 21 28 31 33 40 41 34 34 40 22 17 32 30 33 44 34 20 11 14 6 6 6 10 4 6 7 10 11 5 8 5 6 7 11 9 38 16 23 21 30 36 46 61
25 24 25 29 34 38 39 43 44 43 6 4 10 25 47 46 35 49 42 23 14 6 7 4 4 5 11 6 2 8 5 20 9 6 1 5 29 32 36 35 36 46 53 57
22 29 33 32 31 35 37 42 50 47 38 4 6 19 31 33 39 58 45 47 26 16 8 5 6 6 7 2 1 7 16 11 14 14 27 16 24 56 44 44 50 53 58 53
29 28 34 39 36 33 36 24 45 53 55 7 5 5 13 24 38 44 51 47 44 27 15 8 12 9 12 9 9 9 38 34 28 8 22 41 24 57 56 50 52 54 52 49
39 37 34 41 42 42 53 10 15 50 58 17 7 5 20 23 18 26 29 45 35 33 15 12 11 13 19 6 11 8 33 41 35 31 25 25 24 36 57 52 55 54 51 47
39 40 43 38 43 42 51 64 23 47 57 17 6 5 8 30 15 13 23 19 28 26 18 11 11 11 6 9 35 33 15 39 43 37 43 28 40 41 60 62 61 58 56 53
36 41 49 45 48 52 54 46 60 48 34 11 10 13 9 30 17 12 16 19 8 16 10 12 21 12 13 19 47 40 57 47 32 33 41 36 39 47 53 64 62 65 65 59
41 44 37 35 45 48 29 33 51 56 29 17 6 15 8 24 19 13 14 12 8 9 11 17 9 13 47 65 77 62 61 60 59 58 47 55 53 58 63 64 66 70 69 64
37 41 33 27 40 44 27 21 19 11 10 24 18 21 10 21 8 7 15 5 6 10 10 12 11 11 30 81 70 74 66 57 59 65 68 75 79 74 66 66 66 67 69 65
31 30 58 52 24 14 11 8 2 8 9 9 13 18 16 14 14 6 10 5 3 12 15 10 6 11 62 69 83 98 90 76 70 69 70 77 83 81 75 66 64 65 66 67
13 12 16 14 10 11 13 11 3 6 9 19 23 9 20 10 10 6 6 9 6 3 9 9 16 36 61 69 75 78 81 85 87 85 87 89 88 85 79 74 68 67 73 72
6 9 11 9 7 7 9 15 10 14 23 46 45 14 7 10 6 5 9 6 2 4 6 5 6 13 18 19 27 46 63 69 84 94 97 99 98 93 86 82 74 72 78 75
4 9 10 9 5 5 11 29 25 25 49 55 19 13 9 4 6 6 6 6 9 9 11 9 17 24 27 29 28 31 42 55 76 91 99 100 96 88 82 73 70 69 72 71
4 10 6 2 5 3 6 14 14 24 48 27 13 8 6 6 7 9 14 12 12 7 7 12 6 10 28 26 26 31 31 39 49 51 69 71 66 70 72 68 65 66 65 60
8 5 9 5 14 10 8 11 15 36 35 6 7 10 16 6 6 6 8 9 7 18 24 32 35 39 34 31 33 32 36 34 32 37 45 51 58 64 64 64 63 59 54 49
Wind_Direction_850mb
231 249 281 286 11 20 152 152 144 138 205 103 154 144 188 205 177 226 153 129 115 168 165 175 181 200 231 174 153 181 175 113 153 199 53 344 309 211 188 195 198 230 235 242
235 247 257 240 30 22 118 110 123 135 157 117 180 163 205 195 173 189 166 167 190 153 166 161 194 181 116 166 168 171 179 173 124 135 241 179 214 190 212 161 90 192 178 236
225 227 232 223 220 24 101 106 145 98 153 147 53 111 164 169 228 161 116 139 106 131 177 202 172 159 155 180 187 163 168 149 210 206 211 144 205 193 209 205 198 202 229 220
221 217 214 220 228 216 102 70 88 120 162 185 160 277 74 160 137 57 134 120 226 173 140 163 179 151 133 167 158 141 182 205 203 236 283 195 214 191 189 203 222 209 237 218
228 218 214 214 220 214 176 129 165 117 97 109 169 205 190 217 30 85 172 134 116 125 139 199 174 157 178 164 141 156 158 189 153 195 36 209 214 207 200 209 218 228 235 228
227 223 219 215 214 205 166 171 149 131 137 220 183 183 184 164 115 156 355 153 138 125 155 121 131 84 88 115 141 148 152 144 151 215 167 168 269 217 203 215 222 221 223 221
241 230 220 216 215 228 224 185 167 142 141 204 227 155 160 157 131 230 172 299 156 173 167 132 102 90 105 144 155 137 141 129 104 126 157 209 269 42 229 218 223 218 240 161
242 239 225 219 218 220 220 218 185 166 150 189 163 180 156 151 112 103 65 116 145 148 131 109 119 121 124 165 171 187 155 140 107 179 206 308 197 191 168 186 237 212 215 167
256 229 230 222 216 220 219 223 210 182 133 218 190 184 180 146 153 145 232 237 164 160 138 144 164 175 137 171 148 30 197 201 178 168 193 221 28 169 165 131 260 193 182 165
244 240 228 224 220 214 219 216 223 205 183 220 189 183 182 165 158 159 160 162 176 162 127 143 153 168 77 162 173 165 161 164 197 178 216 279 222 166 158 167 251 169 192 169
233 233 228 227 220 212 216 226 228 214 190 201 205 204 168 147 172 152 163 131 187 122 202 191 182 180 192 165 161 174 169 165 167 139 186 249 149 126 196 172 144 165 175 181
236 238 238 234 232 211 209 221 216 207 211 225 218 224 228 225 223 209 181 254 169 179 154 170 111 148 181 145 197 142 206 187 174 189 201 138 181 226 215 177 162 170 168 173
245 241 237 237 233 231 213 213 214 210 207 216 222 215 220 226 220 218 198 231 210 197 159 148 134 196 150 174 219 138 230 201 194 140 187 199 194 206 183 179 164 158 162 160
251 250 243 236 231 230 223 218 217 218 175 230 239 226 230 227 227 232 240 246 245 225 179 112 147 210 200 203 92 207 162 149 170 277 97 122 197 200 185 182 171 157 159 163
252 253 239 241 233 229 229 229 221 218 198 184 226 241 229 225 228 229 231 232 235 209 158 155 217 127 147 45 356 223 186 170 193 226 176 183 202 200 196 187 177 173 168 165
262 256 244 233 230 224 223 229 234 217 216 238 213 239 220 218 224 223 222 218 214 222 208 209 206 204 189 187 203 239 209 211 215 228 214 209 221 209 201 193 187 185 185 185
259 258 253 231 226 219 213 215 210 209 205 210 187 240 195 192 203 207 206 211 212 216 223 223 214 194 188 168 240 222 225 229 219 223 205 197 194 193 202 200 194 191 188 186
261 251 241 236 226 226 227 229 231 185 184 194 199 156 165 182 166 185 187 176 194 204 212 223 201 152 166 228 241 233 241 228 218 217 205 222 213 202 201 202 198 196 197 199
254 246 234 231 226 222 226 233 224 217 202 177 169 157 182 174 173 161 171 178 184 194 203 194 177 186 206 218 234 200 214 220 225 219 221 218 218 218 208 206 206 210 207 208
268 245 219 206 215 212 209 203 186 194 198 185 200 166 152 167 165 158 169 180 212 206 207 171 211 218 221 232 239 234 226 224 225 222 217 221 224 217 214 214 220 222 220 220
251 204 193 173 180 180 199 209 181 162 176 162 164 177 134 181 146 161 197 201 209 221 195 210 194 214 219 231 236 240 236 227 223 226 236 238 235 224 219 219 220 225 228 226
309 164 148 140 166 183 224 168 148 178 160 162 145 159 150 152 162 140 165 226 231 237 164 203 219 219 221 228 234 240 238 234 232 235 238 238 239 236 233 236 238 235 228 222
203 135 126 134 187 181 190 138 219 166 151 155 150 127 157 130 177 107 136 214 248 2 203 224 239 231 239 237 239 243 245 242 236 232 233 235 237 237 237 240 242 236 224 223
184 119 152 181 183 211 189 142 163 160 152 156 151 121 136 143 147 149 168 195 111 251 235 256 278 275 270 279 263 248 248 243 240 235 234 235 236 235 234 235 234 231 225 223
195 145 170 168 170 334 165 127 125 144 165 148 128 87 101 129 129 158 121 164 213 215 247 252 240 268 302 320 315 291 262 246 242 238 237 237 237 235 233 229 227 224 221 218
98 58 128 180 167 30 79 95 104 134 152 131 95 105 108 191 153 161 187 170 201 215 221 242 285 281 320 330 332 323 304 280 262 255 247 242 239 234 229 221 215 212 210 209
59 53 55 19 49 81 94 106 121 146 155 147 125 147 198 98 140 220 184 208 218 227 237 253 268 278 286 303 303 294 293 287 273 259 245 234 225 218 212 207 201 199 200 202